COSMOS 1795

Satellite information

Favourite Embed

Satellite Type and Status

PAYLOADIN ORBIT

Key statistics

Satellite COSMOS 1795 at a glance.

Uptime

14267

Days in orbit

Revolutions

≈ 12.5

Per day

Orbit

LEO

Low Earth Orbit

Inclination

74.0

Latest

Satellite identification and parameters

Extended collection of information and parameters for COSMOS 1795.

Object identification

Identified? True

Debris? False

Object name: COSMOS 1795

International designator: 1986-092B

Object number (NORAD): 17139

Object ID (CCSDS): 17139

Country: COMMONWEALTH OF INDEPENDENT STATES (CIS)

Current information (Y/N): Y

RCS size: MEDIUM

Orbital parameters

Period: 115.402 minutes

Inclination: 74.0143 deg

SMA: 7851.795 km

Apoapsis: 1480.935 km

Periapsis: 1466.386 km

RAAN: 282.3815 deg

Eccentricy: 0.00092648

Argument of periapsis: 123.3427 deg

Mean anomaly: 346.0033 deg

Mean motion: 12.47812457 rev/day

Mean motion (dot): 0.0 rev/day2

B* drag term: 0.00010942671 1/REarth

Two-line elements (TLE)

Creation date: Dec. 12, 2025, 10:14 a.m.

Reference frame: TEME

Reference center: EARTH

Epoch: Dec. 12, 2025, 6:10 a.m. UTC

TLE line 0: 0 COSMOS 1795

TLE line 1: 1 17139U 86092B 25346.25725134 .00000000 00000-0 10943-3 0 9995

TLE line 2: 2 17139 74.0143 282.3815 0009265 123.3427 346.0033 12.47812457779222

Live tracking on map

Real-time ground track for satellite COSMOS 1795.

In-orbit conjunctions

A list of the most updated potential collisions computed for object COSMOS 1795.

Target Orbit TCA Probability of collision Miss distance Type
COSMOS 535 LEO 2025-04-28 04:05:46 0.0003195953 142.0 (m) PAYLOAD

Associated space launch

Military communications satellites

COSMOS 1795 was lifted into orbit during the mission ‘Kosmos-3M | Strela-1M 313-320’, on board a Kosmos-3M space rocket.

The launch took place on Nov. 21, 1986, 2 a.m. from 132/2.

For more information about the launch, click the button.

Launch to space Kosmos-3M | Strela-1M 313-320
Kosmos-3M | Strela-1M 313-320

Agency: N/A

Status: Launch Successful

Launch date: Nov. 21, 1986, 2 a.m. UTC

Rocket: Kosmos-3M

Launch pad: 132/2

Location: Plesetsk Cosmodrome, Russian Federation

...

Latest news about this satellite

There are no fresh news available about this satellite. Check back as we update our databases every day.


Newsletter sign-up

Weekly statistics, charts and insights to help you stay on top of the space industry.